User: anonymous   Login
Location: Nairn
(57.5833°N, 3.8667°W)
Time: 11:51:19
(UTC+00:00)
Language:

IRS-1D - Orbit

View from above orbital plane
View from above orbital plane
View from above satellite
View from above satellite

Ground track
Ground track

The orbit data is extracted from the following two-line orbital elements,

1 24971U 97057A   20293.55124900 -.00000008 +00000-0 +12784-4 0  9998
2 24971 098.5758 237.1810 0052510 203.2492 156.6312 14.34004533206317
Epoch (UTC): 19 October 2020 13:13:47
Eccentricity: 0.0052510
inclination: 98.5758°
perigee height: 741 km
apogee height: 816 km
right ascension of ascending node: 237.1810°
argument of perigee: 203.2492°
revolutions per day: 14.34004533
mean anomaly at epoch: 156.6312°
orbit number at epoch: 20631

The dashed part of the orbit path shows where the satellite is in the earth's shadow,  

DLR